Showing default

QIANFAN-184, 69402

Orbit data source: Space-Track

QIANFAN-184, 69402 is a Chinese payload satellite in LEO that was launched on Fri, 05 Jun 2026 UTC via a CHANG ZHENG 8 launch vehicle from the Wenchang Satellite Launch Center (WSC). Payload-class satellites include a variety of spacecraft equipped with specific instruments for various scientific and technological missions. These include communications satellites like Starlink; space stations such as the ISS; scientific satellites like the Hubble; Earth observation satellites from companies like Planet Labs, Umbra, and HawkEye 360; GPS; miniature CubeSats for education and research; and military/defense satellites.

Loading next visibility...
Identifier
69402, 2026-125B
Orbit
LEO
Country
Flag of CNCN / PRC
Related business
Manufacturer
SECM?
Mission
Operational spacecraft
Bus & Motor
QIANFAN, Unknown motor
Mass
267 kg wet, ~267 kg dry
Launch date (UTC)
2026-06-05 (2 weeks ago)
Launch vehicle
CHANG ZHENG 8
Launch site
Wenchang Satellite Launch Center (WSC)
Object type
Payload
Rocket body
Debris
Shape & HBR
Unknown
Radar Cross Section
Large (>1 m²)

Expand to show TLE details & history
Last TLE update: 18 hours ago

TLE from 18 hours ago
0 QIANFAN-184
1 69402U 26125B   26171.15893426 -.01948538  00000-0 -11515+1 0  9995
2 69402  88.9945 280.1128 0020816 159.8124 200.3890 14.11639509  2121
Epoch: 2026-06-20T03:48Z
TLE epoch observation values (Epoch: 2026-06-20T03:48:51.920Z)
Latitude
0.00008°
Longitude
-45.4811°
Altitude
870.925 km
Speed
7.41 km/s
True Right ascension
18h 40m 27s
True Declination
0° 00' 00"
Sunlit
Object was in full shadow at epoch
Visualization orbit readout
Latitude
Unknown
Longitude
Unknown
Altitude
Unknown
Speed
Unknown
Apparent Right ascension
Unknown
Apparent Declination
Unknown
Sunlit
N/A
Visualization observer readout
Local Sidereal Time
08:32:56
Azimuth
Unknown
Elevation
Unknown
Doppler factor
Unknown
Orbital elements
Apogee altitude
865.778 km
Perigee altitude
835.682 km
Semi-major axis
7,228.867 km
Eccentricity
0.00208
Inclination
88.9945°
RAAN
280.1128°
Arg. of periapsis
159.8124°
True anomaly
200.3061°
Mean anomaly
200.389°
Eccentric anomaly
200.34753°
Mean motion
3.53133 °/min
Orbital period
101.94 mins
BSTAR
-1.1515
Loading maneuver chart data...
Computing Atmospheric mass density...
Loading historical data...
Loading historical data...
Loading historical data...
Loading historical data...
Loading historical data...
Loading historical data...
Loading historical data...

Documentation

Showing up to 5 results
|